Time,TemperatureF,DewpointF,PressureIn,WindDirection,WindDirectionDegrees,WindSpeedMPH,WindSpeedGustMPH,Humidity,HourlyPrecipIn,Conditions,Clouds,dailyrainin,SolarRadiationWatts/m^2,SoftwareType,DateUTC
2013-07-14 00:01:00,77.8,73.3,30.17,ESE,117,2.4,5.0,86,0.00,CLR,OVC,0.52,0.0,WeatherDisplay:10.37,2013-07-14 04:01:00,
2013-07-14 00:06:00,77.7,73.2,30.17,SE,130,3.0,6.9,86,0.00,RA,OVC,0.00,0.0,WeatherDisplay:10.37,2013-07-14 04:06:00,
2013-07-14 00:11:00,77.7,73.2,30.17,ESE,115,1.6,5.8,86,0.00,RA,OVC,0.00,0.0,WeatherDisplay:10.37,2013-07-14 04:11:00,
2013-07-14 00:16:00,77.7,73.5,30.17,East,82,3.2,6.9,87,0.00,CLR,OVC,0.00,0.0,WeatherDisplay:10.37,2013-07-14 04:16:00,
2013-07-14 00:21:00,77.7,73.5,30.17,ESE,122,1.4,4.6,87,0.00,CLR,OVC,0.00,0.0,WeatherDisplay:10.37,2013-07-14 04:21:00,
2013-07-14 00:26:00,77.7,73.5,30.18,East,94,1.6,4.6,87,0.00,CLR,OVC,0.00,0.0,WeatherDisplay:10.37,2013-07-14 04:26:00,
2013-07-14 00:31:00,77.6,73.8,30.18,SSE,157,0.4,4.6,88,0.00,CLR,OVC,0.00,0.0,WeatherDisplay:10.37,2013-07-14 04:31:00,
2013-07-14 00:36:00,77.5,73.7,30.18,SE,140,0.1,3.5,88,0.00,CLR,OVC,0.00,0.0,WeatherDisplay:10.37,2013-07-14 04:36:00,
2013-07-14 00:41:00,77.5,73.7,30.18,ESE,112,0.0,4.6,88,0.00,CLR,OVC,0.00,0.0,WeatherDisplay:10.37,2013-07-14 04:41:00,
2013-07-14 00:46:00,77.4,73.6,30.18,ESE,117,0.5,4.6,88,0.00,CLR,OVC,0.00,0.0,WeatherDisplay:10.37,2013-07-14 04:46:00,
2013-07-14 00:51:00,77.4,73.6,30.18,East,88,0.6,4.6,88,0.00,CLR,OVC,0.00,0.0,WeatherDisplay:10.37,2013-07-14 04:51:00,
2013-07-14 00:56:00,77.4,73.6,30.18,East,94,0.5,1.1,88,0.00,CLR,OVC,0.00,0.0,WeatherDisplay:10.37,2013-07-14 04:56:00,
2013-07-14 01:01:00,77.3,73.8,30.18,ENE,74,1.6,3.0,89,0.00,CLR,OVC,0.00,0.0,WeatherDisplay:10.37,2013-07-14 05:01:00,
2013-07-14 01:06:00,77.3,73.8,30.17,ESE,102,2.6,8.1,89,0.00,CLR,OVC,0.00,0.0,WeatherDisplay:10.37,2013-07-14 05:06:00,
2013-07-14 01:11:00,77.3,73.8,30.18,East,100,0.9,3.5,89,0.00,CLR,OVC,0.00,0.0,WeatherDisplay:10.37,2013-07-14 05:11:00,
2013-07-14 01:16:00,77.3,73.8,30.18,ESE,105,0.5,3.0,89,0.00,CLR,OVC,0.00,0.0,WeatherDisplay:10.37,2013-07-14 05:16:00,
2013-07-14 01:21:00,77.3,74.1,30.18,ESE,113,2.5,5.8,90,0.00,CLR,OVC,0.00,0.0,WeatherDisplay:10.37,2013-07-14 05:21:00,
2013-07-14 01:26:00,77.2,74.0,30.18,ESE,121,1.9,4.6,90,0.00,CLR,OVC,0.00,0.0,WeatherDisplay:10.37,2013-07-14 05:26:00,
2013-07-14 01:31:00,77.2,74.0,30.18,ESE,119,0.2,2.0,90,0.00,CLR,OVC,0.00,0.0,WeatherDisplay:10.37,2013-07-14 05:31:00,
2013-07-14 01:36:00,77.1,73.9,30.18,ESE,114,1.2,3.5,90,0.00,CLR,OVC,0.00,0.0,WeatherDisplay:10.37,2013-07-14 05:36:00,
2013-07-14 01:41:00,77.1,73.9,30.18,ENE,74,1.8,3.5,90,0.00,CLR,OVC,0.00,0.0,WeatherDisplay:10.37,2013-07-14 05:41:00,
2013-07-14 01:46:00,77.0,73.8,30.18,ESE,111,2.2,2.3,90,0.00,CLR,OVC,0.00,0.0,WeatherDisplay:10.37,2013-07-14 05:46:00,
2013-07-14 01:51:00,77.0,73.8,30.18,East,97,1.0,2.3,90,0.00,CLR,OVC,0.00,0.0,WeatherDisplay:10.37,2013-07-14 05:51:00,
2013-07-14 01:56:00,76.9,73.7,30.18,ESE,117,1.9,4.6,90,0.00,CLR,OVC,0.00,0.0,WeatherDisplay:10.37,2013-07-14 05:56:00,
2013-07-14 02:01:00,77.0,73.8,30.18,ESE,107,0.8,3.5,90,0.00,CLR,OVC,0.00,0.0,WeatherDisplay:10.37,2013-07-14 06:01:00,
2013-07-14 02:06:00,77.0,73.5,30.18,East,100,2.1,4.0,89,0.00,CLR,OVC,0.00,0.0,WeatherDisplay:10.37,2013-07-14 06:06:00,
2013-07-14 02:11:00,77.0,73.5,30.18,East,92,1.3,3.5,89,0.00,CLR,OVC,0.00,0.0,WeatherDisplay:10.37,2013-07-14 06:11:00,
2013-07-14 02:16:00,77.0,73.5,30.18,East,83,2.8,6.0,89,0.00,CLR,OVC,0.00,0.0,WeatherDisplay:10.37,2013-07-14 06:16:00,
2013-07-14 02:21:00,77.1,73.6,30.18,East,101,0.2,2.3,89,0.00,CLR,OVC,0.00,0.0,WeatherDisplay:10.37,2013-07-14 06:21:00,
2013-07-14 02:26:00,77.1,73.6,30.18,ENE,72,0.0,1.1,89,0.00,CLR,OVC,0.00,0.0,WeatherDisplay:10.37,2013-07-14 06:26:00,
2013-07-14 02:31:00,77.0,73.5,30.18,East,80,2.2,2.3,89,0.00,CLR,OVC,0.00,0.0,WeatherDisplay:10.37,2013-07-14 06:31:00,
2013-07-14 02:36:00,76.9,73.4,30.18,East,80,0.9,3.0,89,0.00,CLR,OVC,0.00,0.0,WeatherDisplay:10.37,2013-07-14 06:36:00,
2013-07-14 02:41:00,76.8,73.6,30.18,ESE,105,1.1,3.5,90,0.00,CLR,OVC,0.00,0.0,WeatherDisplay:10.37,2013-07-14 06:41:00,
2013-07-14 02:46:00,76.8,73.6,30.18,East,91,1.1,3.5,90,0.00,CLR,OVC,0.00,0.0,WeatherDisplay:10.37,2013-07-14 06:46:00,
2013-07-14 02:51:00,76.8,73.6,30.18,ESE,111,0.3,2.3,90,0.00,CLR,OVC,0.00,0.0,WeatherDisplay:10.37,2013-07-14 06:51:00,
2013-07-14 02:56:00,76.8,73.6,30.18,ESE,106,0.0,0.0,90,0.00,CLR,OVC,0.00,0.0,WeatherDisplay:10.37,2013-07-14 06:56:00,
2013-07-14 03:01:00,76.8,73.6,30.18,ESE,103,0.0,0.0,90,0.00,CLR,OVC,0.00,0.0,WeatherDisplay:10.37,2013-07-14 07:01:00,
2013-07-14 03:07:00,76.7,73.5,30.18,ESE,113,0.1,1.1,90,0.00,CLR,OVC,0.00,0.0,WeatherDisplay:10.37,2013-07-14 07:07:00,
2013-07-14 03:12:00,76.7,73.5,30.18,East,94,1.7,4.6,90,0.00,CLR,OVC,0.00,0.0,WeatherDisplay:10.37,2013-07-14 07:12:00,
2013-07-14 03:17:00,76.7,73.5,30.18,ESE,103,0.2,2.3,90,0.00,CLR,OVC,0.00,0.0,WeatherDisplay:10.37,2013-07-14 07:17:00,
2013-07-14 03:22:00,76.7,73.5,30.19,East,91,1.1,2.3,90,0.00,CLR,OVC,0.00,0.0,WeatherDisplay:10.37,2013-07-14 07:22:00,
2013-07-14 03:27:00,76.7,73.5,30.19,East,91,0.0,0.0,90,0.00,CLR,OVC,0.00,0.0,WeatherDisplay:10.37,2013-07-14 07:27:00,
2013-07-14 03:32:00,76.7,73.5,30.19,East,85,0.0,0.0,90,0.00,CLR,OVC,0.00,0.0,WeatherDisplay:10.37,2013-07-14 07:32:00,
2013-07-14 03:37:00,76.7,73.9,30.19,East,85,0.0,0.0,91,0.00,CLR,OVC,0.00,0.0,WeatherDisplay:10.37,2013-07-14 07:37:00,
2013-07-14 03:42:00,76.7,73.9,30.18,ESE,102,1.1,3.5,91,0.00,CLR,OVC,0.00,0.0,WeatherDisplay:10.37,2013-07-14 07:42:00,
2013-07-14 03:47:00,76.7,73.9,30.18,East,86,0.4,2.3,91,0.00,CLR,OVC,0.00,0.0,WeatherDisplay:10.37,2013-07-14 07:47:00,
2013-07-14 03:52:00,76.8,74.0,30.18,ENE,69,0.0,1.1,91,0.00,CLR,OVC,0.00,0.0,WeatherDisplay:10.37,2013-07-14 07:52:00,
2013-07-14 03:57:00,76.8,74.0,30.19,ENE,69,0.9,3.5,91,0.00,CLR,OVC,0.00,0.0,WeatherDisplay:10.37,2013-07-14 07:57:00,
2013-07-14 04:02:00,76.8,74.0,30.19,ESE,109,1.6,3.5,91,0.00,CLR,OVC,0.00,0.0,WeatherDisplay:10.37,2013-07-14 08:02:00,
2013-07-14 04:07:00,76.8,74.0,30.18,East,92,1.2,2.3,91,0.00,CLR,OVC,0.00,0.0,WeatherDisplay:10.37,2013-07-14 08:07:00,
2013-07-14 04:12:00,76.9,74.1,30.18,East,93,0.2,3.5,91,0.00,CLR,OVC,0.00,0.0,WeatherDisplay:10.37,2013-07-14 08:12:00,
2013-07-14 04:17:00,76.9,74.1,30.18,East,93,0.0,0.0,91,0.00,CLR,OVC,0.00,0.0,WeatherDisplay:10.37,2013-07-14 08:17:00,
2013-07-14 04:22:00,76.9,74.4,30.18,East,94,0.9,3.5,92,0.00,CLR,OVC,0.00,0.0,WeatherDisplay:10.37,2013-07-14 08:22:00,
2013-07-14 04:27:00,76.9,74.4,30.18,East,93,0.7,2.3,92,0.00,CLR,OVC,0.00,0.0,WeatherDisplay:10.37,2013-07-14 08:27:00,
2013-07-14 04:32:00,76.9,74.4,30.18,East,93,0.0,0.0,92,0.00,CLR,OVC,0.00,0.0,WeatherDisplay:10.37,2013-07-14 08:32:00,
2013-07-14 04:37:00,76.9,74.7,30.19,ENE,60,0.5,3.5,93,0.00,CLR,OVC,0.00,0.0,WeatherDisplay:10.37,2013-07-14 08:37:00,
2013-07-14 04:42:00,77.0,74.8,30.19,NE,50,0.1,2.3,93,0.00,CLR,OVC,0.00,0.0,WeatherDisplay:10.37,2013-07-14 08:42:00,
2013-07-14 04:47:00,77.0,74.8,30.19,ENE,78,1.1,2.3,93,0.00,CLR,OVC,0.00,0.0,WeatherDisplay:10.37,2013-07-14 08:47:00,
2013-07-14 04:52:00,77.0,74.8,30.19,East,101,1.8,3.5,93,0.00,CLR,OVC,0.00,0.0,WeatherDisplay:10.37,2013-07-14 08:52:00,
2013-07-14 04:57:00,77.1,74.9,30.19,ESE,102,1.4,3.0,93,0.00,CLR,OVC,0.00,0.0,WeatherDisplay:10.37,2013-07-14 08:57:00,
2013-07-14 05:02:00,77.1,75.2,30.19,ESE,111,0.1,2.3,94,0.00,CLR,OVC,0.00,0.0,WeatherDisplay:10.37,2013-07-14 09:02:00,
2013-07-14 05:07:00,77.1,75.2,30.19,East,100,1.8,3.5,94,0.00,CLR,OVC,0.00,0.0,WeatherDisplay:10.37,2013-07-14 09:07:00,
2013-07-14 05:12:00,77.1,75.2,30.19,East,83,3.2,4.6,94,0.00,CLR,OVC,0.00,0.0,WeatherDisplay:10.37,2013-07-14 09:12:00,
2013-07-14 05:17:00,77.1,75.2,30.20,East,101,2.2,4.6,94,0.00,CLR,OVC,0.00,0.0,WeatherDisplay:10.37,2013-07-14 09:17:00,
2013-07-14 05:22:00,77.1,75.2,30.20,East,97,1.3,3.5,94,0.00,CLR,OVC,0.00,0.0,WeatherDisplay:10.37,2013-07-14 09:22:00,
2013-07-14 05:27:00,77.1,75.2,30.20,ESE,115,1.2,2.0,94,0.00,CLR,OVC,0.00,0.0,WeatherDisplay:10.37,2013-07-14 09:27:00,
2013-07-14 05:32:00,77.0,75.1,30.20,East,91,1.2,2.3,94,0.00,CLR,OVC,0.00,0.0,WeatherDisplay:10.37,2013-07-14 09:32:00,
2013-07-14 05:37:00,77.0,74.8,30.20,East,83,1.2,3.5,93,0.00,CLR,OVC,0.00,0.0,WeatherDisplay:10.37,2013-07-14 09:37:00,
2013-07-14 05:42:00,77.0,74.8,30.20,ESE,110,0.0,0.0,93,0.00,CLR,OVC,0.00,0.0,WeatherDisplay:10.37,2013-07-14 09:42:00,
2013-07-14 05:47:00,76.9,74.7,30.20,ESE,111,1.1,3.5,93,0.00,CLR,OVC,0.00,0.0,WeatherDisplay:10.37,2013-07-14 09:47:00,
2013-07-14 05:52:00,76.9,74.7,30.20,ESE,106,0.9,2.3,93,0.00,CLR,OVC,0.00,0.0,WeatherDisplay:10.37,2013-07-14 09:52:00,
2013-07-14 05:57:00,76.9,74.7,30.20,ESE,104,0.0,0.0,93,0.00,CLR,OVC,0.00,0.0,WeatherDisplay:10.37,2013-07-14 09:57:00,
2013-07-14 06:02:00,76.9,74.7,30.20,East,91,0.0,0.0,93,0.00,OVC,,0.00,0.0,WeatherDisplay:10.37,2013-07-14 10:02:00,
2013-07-14 06:07:00,76.9,74.7,30.20,East,79,0.0,0.0,93,0.00,OVC,,0.00,0.0,WeatherDisplay:10.37,2013-07-14 10:07:00,
2013-07-14 06:12:00,76.8,74.6,30.21,East,98,0.7,3.5,93,0.00,OVC,,0.00,0.0,WeatherDisplay:10.37,2013-07-14 10:12:00,
2013-07-14 06:17:00,76.8,74.9,30.21,ENE,76,0.0,2.3,94,0.00,OVC,,0.00,0.0,WeatherDisplay:10.37,2013-07-14 10:17:00,
2013-07-14 06:22:00,76.8,74.9,30.21,ENE,71,0.1,1.1,94,0.00,OVC,,0.00,0.0,WeatherDisplay:10.37,2013-07-14 10:22:00,
2013-07-14 06:27:00,76.8,74.9,30.21,East,90,0.9,3.0,94,0.00,OVC,,0.00,0.0,WeatherDisplay:10.37,2013-07-14 10:27:00,
2013-07-14 06:32:00,76.8,74.9,30.21,East,91,0.2,1.1,94,0.00,OVC,,0.00,0.0,WeatherDisplay:10.37,2013-07-14 10:32:00,
2013-07-14 06:37:00,76.8,74.9,30.21,East,95,0.7,1.1,94,0.00,OVC,,0.00,0.0,WeatherDisplay:10.37,2013-07-14 10:37:00,
2013-07-14 06:42:00,76.9,75.0,30.22,East,82,0.5,2.3,94,0.00,OVC,,0.00,0.0,WeatherDisplay:10.37,2013-07-14 10:42:00,
2013-07-14 06:47:00,77.0,75.1,30.22,SSE,161,0.8,3.5,94,0.00,OVC,,0.00,0.0,WeatherDisplay:10.37,2013-07-14 10:47:00,
2013-07-14 06:52:00,77.3,75.4,30.22,East,91,0.3,1.1,94,0.00,OVC,,0.00,0.0,WeatherDisplay:10.37,2013-07-14 10:52:00,
2013-07-14 06:57:00,77.4,75.2,30.22,East,94,1.3,2.3,93,0.00,OVC,,0.00,0.0,WeatherDisplay:10.37,2013-07-14 10:57:00,
2013-07-14 07:02:00,77.6,75.4,30.22,East,94,0.9,3.0,93,0.00,OVC,,0.00,0.0,WeatherDisplay:10.37,2013-07-14 11:02:00,
2013-07-14 07:07:00,77.7,75.2,30.22,ESE,121,1.4,3.5,92,0.00,OVC,,0.00,0.0,WeatherDisplay:10.37,2013-07-14 11:07:00,
2013-07-14 07:12:00,77.7,75.2,30.22,East,79,0.7,2.3,92,0.00,OVC,,0.00,0.0,WeatherDisplay:10.37,2013-07-14 11:12:00,
2013-07-14 07:17:00,77.8,75.0,30.22,East,93,0.5,2.3,91,0.00,OVC,,0.00,0.0,WeatherDisplay:10.37,2013-07-14 11:17:00,
2013-07-14 07:22:00,77.8,75.0,30.22,ESE,117,1.8,4.6,91,0.00,OVC,,0.00,0.0,WeatherDisplay:10.37,2013-07-14 11:22:00,
2013-07-14 07:27:00,77.8,75.0,30.22,ENE,78,1.4,4.6,91,0.00,OVC,,0.00,0.0,WeatherDisplay:10.37,2013-07-14 11:27:00,
2013-07-14 07:32:00,78.0,75.2,30.22,ESE,118,1.1,3.5,91,0.00,OVC,,0.00,0.0,WeatherDisplay:10.37,2013-07-14 11:32:00,
2013-07-14 07:37:00,78.5,75.7,30.22,East,90,2.0,3.5,91,0.00,OVC,,0.00,0.0,WeatherDisplay:10.37,2013-07-14 11:37:00,
2013-07-14 07:42:00,79.1,75.9,30.22,East,96,1.8,4.6,90,0.00,OVC,,0.00,0.0,WeatherDisplay:10.37,2013-07-14 11:42:00,
2013-07-14 07:47:00,79.9,76.4,30.22,East,96,1.9,5.0,89,0.00,OVC,,0.00,0.0,WeatherDisplay:10.37,2013-07-14 11:47:00,
2013-07-14 07:52:00,80.5,76.6,30.22,ESE,121,2.8,4.6,88,0.00,OVC,,0.00,0.0,WeatherDisplay:10.37,2013-07-14 11:52:00,
2013-07-14 07:57:00,81.0,76.4,30.22,ESE,115,1.4,3.5,86,0.00,OVC,,0.00,0.0,WeatherDisplay:10.37,2013-07-14 11:57:00,
2013-07-14 08:02:00,81.3,76.4,30.22,ESE,107,3.4,3.5,85,0.00,OVC,,0.00,0.0,WeatherDisplay:10.37,2013-07-14 12:02:00,
2013-07-14 08:07:00,81.6,76.3,30.22,East,95,3.6,6.9,84,0.00,OVC,,0.00,0.0,WeatherDisplay:10.37,2013-07-14 12:07:00,
2013-07-14 08:12:00,81.8,76.1,30.22,SE,125,1.6,3.5,83,0.00,OVC,,0.00,0.0,WeatherDisplay:10.37,2013-07-14 12:12:00,
2013-07-14 08:17:00,82.0,76.0,30.22,East,98,1.0,3.5,82,0.00,OVC,,0.00,0.0,WeatherDisplay:10.37,2013-07-14 12:17:00,
2013-07-14 08:22:00,82.3,75.9,30.22,East,92,5.8,9.2,81,0.00,OVC,,0.00,0.0,WeatherDisplay:10.37,2013-07-14 12:22:00,
2013-07-14 08:27:00,82.4,76.0,30.22,East,87,1.7,4.6,81,0.00,OVC,,0.00,0.0,WeatherDisplay:10.37,2013-07-14 12:27:00,
2013-07-14 08:32:00,82.4,76.0,30.22,East,82,3.3,5.0,81,0.00,OVC,,0.00,0.0,WeatherDisplay:10.37,2013-07-14 12:32:00,
2013-07-14 08:37:00,82.5,76.1,30.22,East,99,2.1,5.0,81,0.00,OVC,,0.00,0.0,WeatherDisplay:10.37,2013-07-14 12:37:00,
2013-07-14 08:43:00,82.8,76.4,30.22,ESE,109,2.9,4.6,81,0.00,OVC,,0.00,0.0,WeatherDisplay:10.37,2013-07-14 12:43:00,
2013-07-14 08:48:00,82.9,76.1,30.22,ESE,122,4.6,10.4,80,0.00,OVC,,0.00,0.0,WeatherDisplay:10.37,2013-07-14 12:48:00,
2013-07-14 08:53:00,82.9,75.7,30.22,East,97,4.8,10.4,79,0.00,OVC,,0.00,0.0,WeatherDisplay:10.37,2013-07-14 12:53:00,
2013-07-14 08:58:00,82.9,75.7,30.22,East,82,4.9,10.4,79,0.00,OVC,,0.00,0.0,WeatherDisplay:10.37,2013-07-14 12:58:00,
2013-07-14 09:03:00,82.9,75.7,30.23,ESE,110,6.3,10.4,79,0.00,OVC,,0.00,0.0,WeatherDisplay:10.37,2013-07-14 13:03:00,
2013-07-14 09:08:00,83.2,76.0,30.23,ESE,107,6.4,9.2,79,0.00,OVC,,0.00,0.0,WeatherDisplay:10.37,2013-07-14 13:08:00,
2013-07-14 09:13:00,83.3,76.9,30.23,ENE,71,3.4,7.0,81,0.00,OVC,,0.00,0.0,WeatherDisplay:10.37,2013-07-14 13:13:00,
2013-07-14 09:18:00,83.6,76.8,30.23,ESE,118,1.3,5.0,80,0.00,OVC,,0.00,0.0,WeatherDisplay:10.37,2013-07-14 13:18:00,
2013-07-14 09:23:00,83.7,76.5,30.23,ESE,113,2.8,8.1,79,0.00,OVC,,0.00,0.0,WeatherDisplay:10.37,2013-07-14 13:23:00,
2013-07-14 09:28:00,84.0,77.2,30.23,SE,143,5.1,8.1,80,0.00,OVC,,0.00,0.0,WeatherDisplay:10.37,2013-07-14 13:28:00,
2013-07-14 09:33:00,84.1,76.9,30.24,SE,132,6.4,8.1,79,0.00,OVC,,0.00,0.0,WeatherDisplay:10.37,2013-07-14 13:33:00,
2013-07-14 09:38:00,84.2,77.4,30.24,ESE,123,2.8,4.6,80,0.00,OVC,,0.00,0.0,WeatherDisplay:10.37,2013-07-14 13:38:00,
2013-07-14 09:43:00,84.1,76.9,30.24,NE,34,5.5,8.1,79,0.00,OVC,,0.00,0.0,WeatherDisplay:10.37,2013-07-14 13:43:00,
2013-07-14 09:48:00,84.0,77.2,30.23,ENE,61,1.7,6.9,80,0.00,OVC,,0.00,0.0,WeatherDisplay:10.37,2013-07-14 13:48:00,
2013-07-14 09:53:00,84.4,77.6,30.23,ESE,118,4.8,9.0,80,0.00,OVC,,0.00,0.0,WeatherDisplay:10.37,2013-07-14 13:53:00,
2013-07-14 09:58:00,84.0,76.8,30.24,East,95,4.8,8.1,79,0.00,OVC,,0.00,0.0,WeatherDisplay:10.37,2013-07-14 13:58:00,
2013-07-14 10:03:00,83.2,76.0,30.24,SE,134,9.1,11.5,79,0.00,OVC,,0.00,0.0,WeatherDisplay:10.37,2013-07-14 14:03:00,
2013-07-14 10:08:00,82.5,75.3,30.24,ENE,70,4.8,8.1,79,0.00,OVC,,0.00,0.0,WeatherDisplay:10.37,2013-07-14 14:08:00,
2013-07-14 10:13:00,82.3,75.1,30.25,ESE,107,3.9,5.8,79,0.00,OVC,,0.00,0.0,WeatherDisplay:10.37,2013-07-14 14:13:00,
2013-07-14 10:18:00,82.5,74.9,30.25,ESE,105,3.4,9.2,78,0.00,OVC,,0.00,0.0,WeatherDisplay:10.37,2013-07-14 14:18:00,
2013-07-14 10:23:00,82.9,74.2,30.25,East,90,3.4,5.8,75,0.00,OVC,,0.00,0.0,WeatherDisplay:10.37,2013-07-14 14:23:00,
2013-07-14 10:28:00,83.4,75.0,30.25,ESE,115,7.1,9.2,76,0.00,OVC,,0.00,0.0,WeatherDisplay:10.37,2013-07-14 14:28:00,
2013-07-14 10:33:00,83.7,74.5,30.25,East,100,6.2,9.2,74,0.00,OVC,,0.00,0.0,WeatherDisplay:10.37,2013-07-14 14:33:00,
2013-07-14 10:38:00,83.9,74.7,30.25,ENE,67,4.5,6.9,74,0.00,OVC,,0.00,0.0,WeatherDisplay:10.37,2013-07-14 14:38:00,
2013-07-14 10:43:00,84.5,75.7,30.25,ENE,61,2.4,4.6,75,0.00,OVC,,0.00,0.0,WeatherDisplay:10.37,2013-07-14 14:43:00,
2013-07-14 10:48:00,85.2,76.4,30.25,ENE,70,5.8,10.4,75,0.00,OVC,,0.00,0.0,WeatherDisplay:10.37,2013-07-14 14:48:00,
2013-07-14 10:53:00,85.0,76.2,30.25,ENE,61,8.2,10.0,75,0.00,OVC,,0.00,0.0,WeatherDisplay:10.37,2013-07-14 14:53:00,
2013-07-14 10:58:00,85.0,76.6,30.25,ENE,62,6.1,12.0,76,0.00,OVC,,0.00,0.0,WeatherDisplay:10.37,2013-07-14 14:58:00,
2013-07-14 11:03:00,85.0,77.4,30.25,ENE,71,5.7,11.5,78,0.00,OVC,,0.00,0.0,WeatherDisplay:10.37,2013-07-14 15:03:00,
2013-07-14 11:08:00,84.7,76.3,30.25,East,88,7.7,11.5,76,0.00,OVC,,0.00,0.0,WeatherDisplay:10.37,2013-07-14 15:08:00,
2013-07-14 11:13:00,84.3,76.7,30.25,NNE,19,5.6,8.1,78,0.00,OVC,,0.00,0.0,WeatherDisplay:10.37,2013-07-14 15:13:00,
2013-07-14 11:18:00,84.4,76.4,30.25,ESE,121,4.8,6.9,77,0.00,OVC,,0.00,0.0,WeatherDisplay:10.37,2013-07-14 15:18:00,
2013-07-14 11:23:00,84.4,77.2,30.25,SE,134,7.4,11.5,79,0.00,OVC,,0.00,0.0,WeatherDisplay:10.37,2013-07-14 15:23:00,
2013-07-14 11:28:00,84.7,76.7,30.26,ESE,117,6.1,10.4,77,0.00,OVC,,0.00,0.0,WeatherDisplay:10.37,2013-07-14 15:28:00,
2013-07-14 11:33:00,84.9,77.3,30.26,ENE,74,5.7,13.0,78,0.00,OVC,,0.00,0.0,WeatherDisplay:10.37,2013-07-14 15:33:00,
2013-07-14 11:38:00,85.1,77.5,30.26,ENE,66,5.8,12.7,78,0.00,OVC,,0.00,0.0,WeatherDisplay:10.37,2013-07-14 15:38:00,
2013-07-14 11:43:00,85.0,77.0,30.26,NNE,15,3.8,11.5,77,0.00,OVC,,0.00,0.0,WeatherDisplay:10.37,2013-07-14 15:43:00,
2013-07-14 11:48:00,85.2,77.2,30.26,ESE,107,4.5,11.5,77,0.00,OVC,,0.00,0.0,WeatherDisplay:10.37,2013-07-14 15:48:00,
2013-07-14 11:53:00,85.4,76.6,30.27,ENE,71,7.5,11.5,75,0.00,OVC,,0.00,0.0,WeatherDisplay:10.37,2013-07-14 15:53:00,
2013-07-14 11:58:00,85.5,76.7,30.27,ENE,76,7.4,11.5,75,0.00,OVC,,0.00,0.0,WeatherDisplay:10.37,2013-07-14 15:58:00,
2013-07-14 12:03:00,85.2,77.2,30.26,SE,140,5.4,12.7,77,0.00,OVC,,0.00,0.0,WeatherDisplay:10.37,2013-07-14 16:03:00,
2013-07-14 12:08:00,85.0,76.6,30.27,East,86,4.4,9.2,76,0.00,OVC,,0.00,0.0,WeatherDisplay:10.37,2013-07-14 16:08:00,
2013-07-14 12:13:00,84.7,75.9,30.27,ESE,113,9.3,11.5,75,0.00,OVC,,0.00,0.0,WeatherDisplay:10.37,2013-07-14 16:13:00,
2013-07-14 12:18:00,84.7,76.3,30.26,NE,35,5.8,8.1,76,0.00,OVC,,0.00,0.0,WeatherDisplay:10.37,2013-07-14 16:18:00,
2013-07-14 12:23:00,85.0,76.6,30.26,ENE,69,4.5,8.1,76,0.00,OVC,,0.00,0.0,WeatherDisplay:10.37,2013-07-14 16:23:00,
2013-07-14 12:28:00,85.0,76.6,30.26,ENE,64,8.9,11.5,76,0.00,OVC,,0.00,0.0,WeatherDisplay:10.37,2013-07-14 16:28:00,
2013-07-14 12:33:00,84.8,76.4,30.26,SE,125,4.0,8.1,76,0.00,OVC,,0.00,0.0,WeatherDisplay:10.37,2013-07-14 16:33:00,
2013-07-14 12:38:00,85.1,76.3,30.26,ESE,122,7.6,11.5,75,0.00,OVC,,0.00,0.0,WeatherDisplay:10.37,2013-07-14 16:38:00,
2013-07-14 12:43:00,84.9,76.5,30.27,East,80,3.7,6.9,76,0.00,OVC,,0.00,0.0,WeatherDisplay:10.37,2013-07-14 16:43:00,
2013-07-14 12:48:00,85.0,76.2,30.27,ENE,59,5.6,12.7,75,0.00,OVC,,0.00,0.0,WeatherDisplay:10.37,2013-07-14 16:48:00,
2013-07-14 12:53:00,85.0,76.6,30.26,East,90,3.8,9.2,76,0.00,OVC,,0.00,0.0,WeatherDisplay:10.37,2013-07-14 16:53:00,
2013-07-14 12:58:00,84.7,75.5,30.26,East,91,7.8,9.2,74,0.00,OVC,,0.00,0.0,WeatherDisplay:10.37,2013-07-14 16:58:00,
2013-07-14 13:03:00,84.6,76.2,30.26,ESE,123,5.3,7.0,76,0.00,OVC,,0.00,0.0,WeatherDisplay:10.37,2013-07-14 17:03:00,
2013-07-14 13:08:00,84.5,76.1,30.26,ESE,102,3.2,7.0,76,0.00,OVC,,0.00,0.0,WeatherDisplay:10.37,2013-07-14 17:08:00,
2013-07-14 13:13:00,84.9,76.5,30.26,ESE,105,1.9,3.5,76,0.00,OVC,,0.00,0.0,WeatherDisplay:10.37,2013-07-14 17:13:00,
2013-07-14 13:18:00,85.3,76.9,30.26,East,83,4.2,6.9,76,0.00,OVC,,0.00,0.0,WeatherDisplay:10.37,2013-07-14 17:18:00,
2013-07-14 13:23:00,85.5,76.7,30.26,East,88,2.8,6.9,75,0.00,OVC,,0.00,0.0,WeatherDisplay:10.37,2013-07-14 17:23:00,
2013-07-14 13:28:00,85.5,76.7,30.26,ENE,72,2.4,6.9,75,0.00,OVC,,0.00,0.0,WeatherDisplay:10.37,2013-07-14 17:28:00,
2013-07-14 13:33:00,85.4,76.6,30.26,ESE,104,6.0,10.4,75,0.00,OVC,,0.00,0.0,WeatherDisplay:10.37,2013-07-14 17:33:00,
2013-07-14 13:38:00,85.0,75.8,30.27,ENE,59,8.5,12.7,74,0.00,OVC,,0.00,0.0,WeatherDisplay:10.37,2013-07-14 17:38:00,
2013-07-14 13:43:00,84.8,75.6,30.27,East,84,4.9,9.2,74,0.00,OVC,,0.00,0.0,WeatherDisplay:10.37,2013-07-14 17:43:00,
2013-07-14 13:48:00,84.7,75.9,30.26,SE,144,5.6,10.4,75,0.00,OVC,,0.00,0.0,WeatherDisplay:10.37,2013-07-14 17:48:00,
2013-07-14 13:53:00,84.5,76.1,30.26,ESE,113,5.9,9.2,76,0.00,OVC,,0.00,0.0,WeatherDisplay:10.37,2013-07-14 17:53:00,
2013-07-14 13:58:00,84.6,75.8,30.26,East,84,4.4,9.2,75,0.00,OVC,,0.00,0.0,WeatherDisplay:10.37,2013-07-14 17:58:00,
2013-07-14 14:03:00,85.2,76.8,30.26,East,90,5.2,8.1,76,0.00,OVC,,0.00,0.0,WeatherDisplay:10.37,2013-07-14 18:03:00,
2013-07-14 14:08:00,85.5,76.7,30.26,ESE,113,5.9,9.2,75,0.00,OVC,,0.00,0.0,WeatherDisplay:10.37,2013-07-14 18:08:00,
2013-07-14 14:13:00,85.6,76.4,30.26,ENE,57,7.2,10.4,74,0.00,OVC,,0.00,0.0,WeatherDisplay:10.37,2013-07-14 18:13:00,
2013-07-14 14:18:00,85.0,75.8,30.26,ESE,109,7.5,12.7,74,0.00,OVC,,0.00,0.0,WeatherDisplay:10.37,2013-07-14 18:18:00,
2013-07-14 14:24:00,84.6,75.8,30.25,SE,125,6.6,10.4,75,0.00,OVC,,0.00,0.0,WeatherDisplay:10.37,2013-07-14 18:24:00,
2013-07-14 14:29:00,84.8,76.4,30.25,ESE,115,5.7,11.5,76,0.00,OVC,,0.00,0.0,WeatherDisplay:10.37,2013-07-14 18:29:00,
2013-07-14 14:34:00,84.8,76.8,30.25,ENE,69,1.6,4.0,77,0.00,OVC,,0.00,0.0,WeatherDisplay:10.37,2013-07-14 18:34:00,
2013-07-14 14:39:00,84.9,76.1,30.25,ESE,118,4.1,11.0,75,0.00,OVC,,0.00,0.0,WeatherDisplay:10.37,2013-07-14 18:39:00,
2013-07-14 14:44:00,85.0,76.2,30.25,ESE,111,5.1,8.1,75,0.00,OVC,,0.00,0.0,WeatherDisplay:10.37,2013-07-14 18:44:00,
2013-07-14 14:49:00,85.0,76.2,30.25,ESE,102,9.7,11.5,75,0.00,OVC,,0.00,0.0,WeatherDisplay:10.37,2013-07-14 18:49:00,
2013-07-14 14:54:00,84.8,76.4,30.25,ESE,103,5.5,6.9,76,0.00,OVC,,0.00,0.0,WeatherDisplay:10.37,2013-07-14 18:54:00,
2013-07-14 14:59:00,85.0,77.0,30.24,NNE,32,4.6,11.5,77,0.00,OVC,,0.00,0.0,WeatherDisplay:10.37,2013-07-14 18:59:00,
2013-07-14 15:04:00,85.1,76.3,30.24,ESE,109,7.3,11.5,75,0.00,OVC,,0.00,0.0,WeatherDisplay:10.37,2013-07-14 19:04:00,
2013-07-14 15:09:00,84.7,76.3,30.24,NE,55,4.1,10.0,76,0.00,OVC,,0.00,0.0,WeatherDisplay:10.37,2013-07-14 19:09:00,
2013-07-14 15:14:00,84.9,76.5,30.24,ENE,62,6.5,9.2,76,0.00,OVC,,0.00,0.0,WeatherDisplay:10.37,2013-07-14 19:14:00,
2013-07-14 15:19:00,84.9,76.9,30.24,NE,53,4.2,8.1,77,0.00,OVC,,0.00,0.0,WeatherDisplay:10.37,2013-07-14 19:19:00,
2013-07-14 15:24:00,85.0,77.0,30.24,ENE,71,3.1,8.0,77,0.00,OVC,,0.00,0.0,WeatherDisplay:10.37,2013-07-14 19:24:00,
2013-07-14 15:29:00,85.0,76.6,30.24,ENE,61,5.9,11.5,76,0.00,OVC,,0.00,0.0,WeatherDisplay:10.37,2013-07-14 19:29:00,
2013-07-14 15:34:00,85.1,76.7,30.24,NE,36,6.9,11.5,76,0.00,OVC,,0.00,0.0,WeatherDisplay:10.37,2013-07-14 19:34:00,
2013-07-14 15:39:00,85.3,77.3,30.24,NE,42,6.2,8.0,77,0.00,OVC,,0.00,0.0,WeatherDisplay:10.37,2013-07-14 19:39:00,
2013-07-14 15:44:00,84.9,76.5,30.24,NE,44,6.4,8.1,76,0.00,OVC,,0.00,0.0,WeatherDisplay:10.37,2013-07-14 19:44:00,
2013-07-14 15:49:00,84.4,76.0,30.24,East,84,6.0,9.2,76,0.00,OVC,,0.00,0.0,WeatherDisplay:10.37,2013-07-14 19:49:00,
2013-07-14 15:54:00,84.4,76.4,30.24,NE,46,5.4,10.4,77,0.00,OVC,,0.00,0.0,WeatherDisplay:10.37,2013-07-14 19:54:00,
2013-07-14 15:59:00,84.6,76.6,30.24,ENE,71,7.0,11.5,77,0.00,OVC,,0.00,0.0,WeatherDisplay:10.37,2013-07-14 19:59:00,
2013-07-14 16:04:00,84.5,76.1,30.23,NNE,33,6.4,11.0,76,0.00,OVC,,0.00,0.0,WeatherDisplay:10.37,2013-07-14 20:04:00,
2013-07-14 16:09:00,84.5,76.1,30.24,East,82,7.7,10.4,76,0.00,OVC,,0.00,0.0,WeatherDisplay:10.37,2013-07-14 20:09:00,
2013-07-14 16:14:00,84.5,76.9,30.23,East,83,6.6,9.2,78,0.00,OVC,,0.00,0.0,WeatherDisplay:10.37,2013-07-14 20:14:00,
2013-07-14 16:19:00,84.5,76.5,30.23,ESE,119,3.3,9.2,77,0.00,OVC,,0.00,0.0,WeatherDisplay:10.37,2013-07-14 20:19:00,
2013-07-14 16:24:00,84.2,76.2,30.23,SE,132,3.5,7.0,77,0.00,OVC,,0.00,0.0,WeatherDisplay:10.37,2013-07-14 20:24:00,
2013-07-14 16:29:00,84.2,76.6,30.23,East,80,3.6,8.0,78,0.00,OVC,,0.00,0.0,WeatherDisplay:10.37,2013-07-14 20:29:00,
2013-07-14 16:34:00,84.3,76.3,30.23,ENE,72,5.8,12.7,77,0.00,OVC,,0.00,0.0,WeatherDisplay:10.37,2013-07-14 20:34:00,
2013-07-14 16:39:00,84.2,76.2,30.23,NE,48,8.2,11.5,77,0.00,OVC,,0.00,0.0,WeatherDisplay:10.37,2013-07-14 20:39:00,
2013-07-14 16:44:00,84.2,76.6,30.23,NE,34,5.4,6.9,78,0.00,OVC,,0.00,0.0,WeatherDisplay:10.37,2013-07-14 20:44:00,
2013-07-14 16:49:00,84.3,76.3,30.23,NE,43,6.0,11.5,77,0.00,OVC,,0.00,0.0,WeatherDisplay:10.37,2013-07-14 20:49:00,
2013-07-14 16:54:00,84.4,76.8,30.23,NNE,27,2.9,9.2,78,0.00,OVC,,0.00,0.0,WeatherDisplay:10.37,2013-07-14 20:54:00,
2013-07-14 16:59:00,84.5,76.5,30.23,East,84,2.9,7.0,77,0.00,OVC,,0.00,0.0,WeatherDisplay:10.37,2013-07-14 20:59:00,
2013-07-14 17:04:00,84.3,76.3,30.23,East,86,4.6,8.0,77,0.00,OVC,,0.00,0.0,WeatherDisplay:10.37,2013-07-14 21:04:00,
2013-07-14 17:09:00,83.8,76.2,30.23,ESE,103,3.4,11.5,78,0.00,OVC,,0.00,0.0,WeatherDisplay:10.37,2013-07-14 21:09:00,
2013-07-14 17:14:00,83.9,76.7,30.23,East,86,3.3,4.6,79,0.00,OVC,,0.00,0.0,WeatherDisplay:10.37,2013-07-14 21:14:00,
2013-07-14 17:19:00,83.9,76.7,30.23,East,82,2.5,6.9,79,0.00,OVC,,0.00,0.0,WeatherDisplay:10.37,2013-07-14 21:19:00,
2013-07-14 17:24:00,83.7,76.5,30.23,SE,125,5.2,9.2,79,0.00,OVC,,0.00,0.0,WeatherDisplay:10.37,2013-07-14 21:24:00,
2013-07-14 17:29:00,83.6,76.8,30.23,ENE,62,3.5,4.6,80,0.00,OVC,,0.00,0.0,WeatherDisplay:10.37,2013-07-14 21:29:00,
2013-07-14 17:34:00,83.7,76.5,30.23,East,80,4.4,10.4,79,0.00,OVC,,0.00,0.0,WeatherDisplay:10.37,2013-07-14 21:34:00,
2013-07-14 17:39:00,83.7,76.5,30.23,NE,39,4.7,6.0,79,0.00,OVC,,0.00,0.0,WeatherDisplay:10.37,2013-07-14 21:39:00,
2013-07-14 17:44:00,83.6,76.4,30.23,NE,34,5.1,6.0,79,0.00,OVC,,0.00,0.0,WeatherDisplay:10.37,2013-07-14 21:44:00,
2013-07-14 17:49:00,83.3,76.1,30.23,ENE,71,7.0,11.5,79,0.00,OVC,,0.00,0.0,WeatherDisplay:10.37,2013-07-14 21:49:00,
2013-07-14 17:54:00,83.2,76.4,30.23,East,82,6.7,10.4,80,0.00,OVC,,0.00,0.0,WeatherDisplay:10.37,2013-07-14 21:54:00,
2013-07-14 17:59:00,83.0,76.2,30.22,ENE,75,5.2,11.5,80,0.00,OVC,,0.00,0.0,WeatherDisplay:10.37,2013-07-14 21:59:00,
2013-07-14 18:04:00,83.0,76.2,30.22,NE,39,2.7,8.1,80,0.00,OVC,,0.00,0.0,WeatherDisplay:10.37,2013-07-14 22:04:00,
2013-07-14 18:09:00,83.0,75.8,30.22,ENE,76,7.3,13.8,79,0.00,OVC,,0.00,0.0,WeatherDisplay:10.37,2013-07-14 22:09:00,
2013-07-14 18:14:00,82.9,76.1,30.22,ENE,61,6.6,11.5,80,0.00,OVC,,0.00,0.0,WeatherDisplay:10.37,2013-07-14 22:14:00,
2013-07-14 18:19:00,82.8,76.4,30.22,NE,55,2.1,6.9,81,0.00,OVC,,0.00,0.0,WeatherDisplay:10.37,2013-07-14 22:19:00,
2013-07-14 18:24:00,83.0,76.6,30.22,ENE,58,1.2,5.0,81,0.00,OVC,,0.00,0.0,WeatherDisplay:10.37,2013-07-14 22:24:00,
2013-07-14 18:29:00,83.1,76.7,30.22,East,96,4.3,11.5,81,0.00,OVC,,0.00,0.0,WeatherDisplay:10.37,2013-07-14 22:29:00,
2013-07-14 18:34:00,82.7,76.3,30.22,NE,53,1.8,10.4,81,0.00,OVC,,0.00,0.0,WeatherDisplay:10.37,2013-07-14 22:34:00,
2013-07-14 18:39:00,82.4,76.3,30.22,SE,126,3.7,10.4,82,0.00,OVC,,0.00,0.0,WeatherDisplay:10.37,2013-07-14 22:39:00,
2013-07-14 18:44:00,82.1,76.4,30.22,NE,41,0.1,6.9,83,0.00,OVC,,0.00,0.0,WeatherDisplay:10.37,2013-07-14 22:44:00,
2013-07-14 18:49:00,82.0,76.7,30.22,East,94,2.9,8.1,84,0.00,OVC,,0.00,0.0,WeatherDisplay:10.37,2013-07-14 22:49:00,
2013-07-14 18:54:00,81.8,76.5,30.22,North,355,0.5,3.5,84,0.00,OVC,,0.00,0.0,WeatherDisplay:10.37,2013-07-14 22:54:00,
2013-07-14 18:59:00,81.6,76.6,30.22,NNE,32,4.2,6.9,85,0.00,OVC,,0.00,0.0,WeatherDisplay:10.37,2013-07-14 22:59:00,
2013-07-14 19:04:00,81.6,76.6,30.22,NNE,19,1.4,4.6,85,0.00,OVC,,0.00,0.0,WeatherDisplay:10.37,2013-07-14 23:04:00,
2013-07-14 19:09:00,81.6,76.6,30.22,ENE,78,1.0,2.3,85,0.00,OVC,,0.00,0.0,WeatherDisplay:10.37,2013-07-14 23:09:00,
2013-07-14 19:14:00,81.5,76.9,30.23,ENE,66,1.5,10.0,86,0.00,OVC,,0.00,0.0,WeatherDisplay:10.37,2013-07-14 23:14:00,
2013-07-14 19:19:00,81.4,76.8,30.23,ENE,78,2.3,4.6,86,0.00,OVC,,0.00,0.0,WeatherDisplay:10.37,2013-07-14 23:19:00,
2013-07-14 19:24:00,81.2,76.6,30.23,East,80,6.2,11.5,86,0.00,OVC,,0.00,0.0,WeatherDisplay:10.37,2013-07-14 23:24:00,
2013-07-14 19:29:00,81.1,76.2,30.23,NE,55,1.4,3.5,85,0.00,OVC,,0.00,0.0,WeatherDisplay:10.37,2013-07-14 23:29:00,
2013-07-14 19:34:00,81.0,76.4,30.24,NE,43,1.5,5.8,86,0.00,OVC,,0.00,0.0,WeatherDisplay:10.37,2013-07-14 23:34:00,
2013-07-14 19:39:00,80.9,76.0,30.24,NE,53,2.7,4.6,85,0.00,OVC,,0.00,0.0,WeatherDisplay:10.37,2013-07-14 23:39:00,
2013-07-14 19:44:00,80.9,76.0,30.24,NE,50,4.4,6.9,85,0.00,OVC,,0.00,0.0,WeatherDisplay:10.37,2013-07-14 23:44:00,
2013-07-14 19:49:00,80.8,76.2,30.24,East,82,2.4,4.6,86,0.00,OVC,,0.00,0.0,WeatherDisplay:10.37,2013-07-14 23:49:00,
2013-07-14 19:54:00,80.7,76.1,30.24,ENE,57,1.6,3.5,86,0.00,OVC,,0.00,0.0,WeatherDisplay:10.37,2013-07-14 23:54:00,
2013-07-14 20:00:00,80.7,76.1,30.24,NE,50,2.5,3.5,86,0.00,OVC,,0.00,0.0,WeatherDisplay:10.37,2013-07-15 00:00:00,
2013-07-14 20:05:00,80.5,75.9,30.23,ENE,67,1.5,2.3,86,0.00,OVC,,0.00,0.0,WeatherDisplay:10.37,2013-07-15 00:05:00,
2013-07-14 20:10:00,80.4,76.2,30.23,ENE,59,2.8,4.0,87,0.00,OVC,,0.00,0.0,WeatherDisplay:10.37,2013-07-15 00:10:00,
2013-07-14 20:15:00,80.3,76.1,30.23,NE,54,3.4,5.8,87,0.00,OVC,,0.00,0.0,WeatherDisplay:10.37,2013-07-15 00:15:00,
2013-07-14 20:20:00,80.2,76.0,30.23,ENE,70,1.2,4.0,87,0.00,OVC,,0.00,0.0,WeatherDisplay:10.37,2013-07-15 00:20:00,
2013-07-14 20:25:00,80.0,75.8,30.23,NE,46,2.1,6.9,87,0.00,OVC,,0.00,0.0,WeatherDisplay:10.37,2013-07-15 00:25:00,
2013-07-14 20:30:00,79.9,76.0,30.23,SW,225,0.5,2.3,88,0.00,OVC,,0.00,0.0,WeatherDisplay:10.37,2013-07-15 00:30:00,
2013-07-14 20:35:00,79.8,75.9,30.23,ENE,71,1.0,2.3,88,0.00,OVC,,0.00,0.0,WeatherDisplay:10.37,2013-07-15 00:35:00,
2013-07-14 20:40:00,79.7,75.8,30.23,NE,51,1.4,3.5,88,0.00,OVC,,0.00,0.0,WeatherDisplay:10.37,2013-07-15 00:40:00,
2013-07-14 20:45:00,79.6,76.1,30.23,ENE,59,1.6,5.0,89,0.00,OVC,,0.00,0.0,WeatherDisplay:10.37,2013-07-15 00:45:00,
2013-07-14 20:50:00,79.6,76.1,30.23,ENE,61,0.4,2.3,89,0.00,OVC,,0.00,0.0,WeatherDisplay:10.37,2013-07-15 00:50:00,
2013-07-14 20:55:00,79.5,76.0,30.24,ENE,63,0.0,1.1,89,0.00,OVC,,0.00,0.0,WeatherDisplay:10.37,2013-07-15 00:55:00,
2013-07-14 21:00:00,79.4,75.9,30.24,ENE,62,1.0,3.5,89,0.00,CLR,OVC,0.00,0.0,WeatherDisplay:10.37,2013-07-15 01:00:00,
2013-07-14 21:05:00,79.3,75.8,30.24,ENE,61,0.0,2.3,89,0.00,CLR,OVC,0.00,0.0,WeatherDisplay:10.37,2013-07-15 01:05:00,
2013-07-14 21:10:00,79.1,75.9,30.24,ENE,58,2.6,3.5,90,0.00,CLR,OVC,0.00,0.0,WeatherDisplay:10.37,2013-07-15 01:10:00,
2013-07-14 21:15:00,79.1,75.9,30.24,East,84,1.8,3.5,90,0.00,CLR,OVC,0.00,0.0,WeatherDisplay:10.37,2013-07-15 01:15:00,
2013-07-14 21:20:00,79.0,75.8,30.24,NE,54,2.1,3.5,90,0.00,CLR,OVC,0.00,0.0,WeatherDisplay:10.37,2013-07-15 01:20:00,
2013-07-14 21:25:00,79.0,75.8,30.24,NE,49,2.3,3.5,90,0.00,CLR,OVC,0.00,0.0,WeatherDisplay:10.37,2013-07-15 01:25:00,
2013-07-14 21:30:00,79.0,76.1,30.24,NE,43,2.4,3.5,91,0.00,CLR,OVC,0.00,0.0,WeatherDisplay:10.37,2013-07-15 01:30:00,
2013-07-14 21:35:00,78.9,76.0,30.25,ENE,70,2.6,7.0,91,0.00,CLR,OVC,0.00,0.0,WeatherDisplay:10.37,2013-07-15 01:35:00,
2013-07-14 21:40:00,79.0,76.1,30.25,ENE,61,3.6,4.6,91,0.00,CLR,OVC,0.00,0.0,WeatherDisplay:10.37,2013-07-15 01:40:00,
2013-07-14 21:45:00,79.0,76.1,30.25,NE,51,3.6,6.0,91,0.00,CLR,OVC,0.00,0.0,WeatherDisplay:10.37,2013-07-15 01:45:00,
2013-07-14 21:50:00,79.0,76.1,30.25,East,83,3.5,5.0,91,0.00,CLR,OVC,0.00,0.0,WeatherDisplay:10.37,2013-07-15 01:50:00,
2013-07-14 21:55:00,79.0,76.1,30.25,ENE,66,2.3,3.0,91,0.00,CLR,OVC,0.00,0.0,WeatherDisplay:10.37,2013-07-15 01:55:00,
2013-07-14 22:00:00,79.0,76.1,30.25,NE,41,2.4,3.5,91,0.00,CLR,OVC,0.00,0.0,WeatherDisplay:10.37,2013-07-15 02:00:00,
2013-07-14 22:05:00,79.0,76.1,30.25,ENE,59,0.7,3.5,91,0.00,CLR,OVC,0.00,0.0,WeatherDisplay:10.37,2013-07-15 02:05:00,
2013-07-14 22:10:00,79.0,76.1,30.25,NNE,28,1.5,4.6,91,0.00,CLR,OVC,0.00,0.0,WeatherDisplay:10.37,2013-07-15 02:10:00,
2013-07-14 22:15:00,78.9,76.0,30.25,NE,49,5.4,6.9,91,0.00,CLR,OVC,0.00,0.0,WeatherDisplay:10.37,2013-07-15 02:15:00,
2013-07-14 22:20:00,78.9,76.0,30.26,ENE,76,0.1,3.5,91,0.00,CLR,OVC,0.00,0.0,WeatherDisplay:10.37,2013-07-15 02:20:00,
2013-07-14 22:25:00,78.9,76.0,30.26,ENE,57,1.5,2.3,91,0.00,CLR,OVC,0.00,0.0,WeatherDisplay:10.37,2013-07-15 02:25:00,
2013-07-14 22:30:00,78.9,76.0,30.26,ENE,65,1.1,3.5,91,0.00,CLR,OVC,0.00,0.0,WeatherDisplay:10.37,2013-07-15 02:30:00,
2013-07-14 22:35:00,78.9,76.0,30.26,ENE,65,0.9,4.6,91,0.00,CLR,OVC,0.00,0.0,WeatherDisplay:10.37,2013-07-15 02:35:00,
2013-07-14 22:40:00,78.9,76.0,30.26,ENE,57,0.4,3.5,91,0.00,CLR,OVC,0.00,0.0,WeatherDisplay:10.37,2013-07-15 02:40:00,
2013-07-14 22:45:00,78.9,75.7,30.26,East,90,1.7,5.0,90,0.00,CLR,OVC,0.00,0.0,WeatherDisplay:10.37,2013-07-15 02:45:00,
2013-07-14 22:50:00,79.0,75.8,30.26,NNE,15,1.7,4.6,90,0.00,CLR,OVC,0.00,0.0,WeatherDisplay:10.37,2013-07-15 02:50:00,
2013-07-14 22:55:00,79.0,76.1,30.26,NE,56,2.0,5.8,91,0.00,CLR,OVC,0.00,0.0,WeatherDisplay:10.37,2013-07-15 02:55:00,
2013-07-14 23:00:00,78.9,76.0,30.26,ENE,63,1.5,3.5,91,0.00,CLR,OVC,0.00,0.0,WeatherDisplay:10.37,2013-07-15 03:00:00,
2013-07-14 23:05:00,78.9,76.0,30.26,ENE,66,0.7,3.5,91,0.00,CLR,OVC,0.00,0.0,WeatherDisplay:10.37,2013-07-15 03:05:00,
2013-07-14 23:10:00,78.9,76.0,30.26,NE,55,2.8,4.0,91,0.00,CLR,OVC,0.00,0.0,WeatherDisplay:10.37,2013-07-15 03:10:00,
2013-07-14 23:15:00,78.8,75.9,30.26,East,88,4.3,6.9,91,0.00,CLR,OVC,0.00,0.0,WeatherDisplay:10.37,2013-07-15 03:15:00,
2013-07-14 23:20:00,78.8,75.9,30.26,NE,55,2.0,3.5,91,0.00,CLR,OVC,0.00,0.0,WeatherDisplay:10.37,2013-07-15 03:20:00,
2013-07-14 23:25:00,78.8,75.9,30.26,NE,47,1.4,6.9,91,0.00,CLR,OVC,0.00,0.0,WeatherDisplay:10.37,2013-07-15 03:25:00,
2013-07-14 23:30:00,78.7,75.8,30.26,ENE,74,2.3,3.5,91,0.00,CLR,OVC,0.00,0.0,WeatherDisplay:10.37,2013-07-15 03:30:00,
2013-07-14 23:36:00,78.7,75.8,30.26,ENE,68,1.6,3.5,91,0.00,CLR,OVC,0.00,0.0,WeatherDisplay:10.37,2013-07-15 03:36:00,
2013-07-14 23:41:00,78.7,75.8,30.26,NNE,28,1.3,4.6,91,0.00,CLR,OVC,0.00,0.0,WeatherDisplay:10.37,2013-07-15 03:41:00,
2013-07-14 23:46:00,78.7,75.8,30.26,East,80,1.8,4.6,91,0.00,CLR,OVC,0.00,0.0,WeatherDisplay:10.37,2013-07-15 03:46:00,
2013-07-14 23:51:00,78.7,75.8,30.26,East,80,0.6,3.5,91,0.00,CLR,OVC,0.00,0.0,WeatherDisplay:10.37,2013-07-15 03:51:00,
2013-07-14 23:56:00,78.6,75.8,30.26,ENE,71,2.7,4.6,91,0.00,CLR,OVC,0.00,0.0,WeatherDisplay:10.37,2013-07-15 03:56:00,